Walla Walla, WA

3:38 PM PST on February 05, 2016 (GMT -0800)
Walla Walla Regional

Weather History for KALW - November, 2013

Change the Weather History Date:

Sunday, November 17, 2013

  Actual Average Record
Temperature  
Mean Temperature 49 °F 41 °F  
Max Temperature 55 °F 48 °F 67 °F (1976)
Min Temperature 43 °F 35 °F 10 °F (1959)
Degree Days  
Heating Degree Days 16 24  
Month to date heating degree days 353  
Since 1 July heating degree days 818  
Cooling Degree Days 0 0  
Month to date cooling degree days 0  
Year to date cooling degree days 850  
Moisture  
Dew Point 34 °F    
Average Humidity 58    
Maximum Humidity 76    
Minimum Humidity 41    
Precipitation  
Precipitation 0.01 in 0.09 in 0.83 in (1981)
Month to date precipitation 1.64  
Year to date precipitation 17.15  
Snow  
Snow 0.00 in 0.10 in 0.30 in (1955)
Month to date snowfall 0.4  
Year to date snowfall 6.5  
Since 1 July snowfall 0.5  
Snow Depth -    
Sea Level Pressure  
Sea Level Pressure 29.92 in    
Wind  
Wind Speed 11 mph (SSW)    
Max Wind Speed 18 mph    
Max Gust Speed 28 mph    
Visibility 10 miles    
Events Rain    
T = Trace of Precipitation, MM = Missing Value Source: NWS Daily Summary

Daily Weather History Graph

Daily Weather History Graph

Search for Another Location

Airport or City:

Trip Planner

Search our weather history database for the weather conditions in past years. The results will help you decide how hot, cold, wet, or windy it might be!

Date:

Astronomy

Nov. 17, 2013 Rise Set
Actual Time 6:57 AM PST 4:18 PM PST
Civil Twilight 6:24 AM PST 4:51 PM PST
Nautical Twilight 5:47 AM PST 5:28 PM PST
Astronomical Twilight 5:12 AM PST 6:03 PM PST
Moon 4:39 PM PST (11/17) 6:55 AM PST (11/17)
Length of Visible Light 10h 27m
Length of Day
9h 21m
Full, 100% of the Moon is Illuminated
Nov 17
Full
Nov 25
Last Quarter
Dec 2
New
Dec 9
First Quarter
Dec 17
Full

Hourly Weather History & Observations

Time (PST) Temp. Windchill Dew Point Humidity Pressure Visibility Wind Dir Wind Speed Gust Speed Precip Events Conditions
12:53 AM 44.1 °F 38.1 °F 34.0 °F 68% 29.79 in 10.0 mi SW 11.5 mph - N/A   Overcast
1:53 AM 43.0 °F 38.8 °F 35.1 °F 74% 29.83 in 10.0 mi West 6.9 mph - N/A   Overcast
2:53 AM 43.0 °F 37.2 °F 35.1 °F 74% 29.84 in 10.0 mi SSW 10.4 mph - N/A   Mostly Cloudy
3:53 AM 44.1 °F 39.5 °F 35.1 °F 71% 29.86 in 10.0 mi SSW 8.1 mph - N/A   Overcast
4:53 AM 44.1 °F 38.6 °F 36.0 °F 73% 29.88 in 10.0 mi SSW 10.4 mph - N/A   Overcast
5:53 AM 43.0 °F 37.7 °F 36.0 °F 76% 29.89 in 10.0 mi SSW 9.2 mph - N/A   Overcast
6:53 AM 44.1 °F 38.6 °F 36.0 °F 73% 29.90 in 10.0 mi South 10.4 mph - N/A   Overcast
7:53 AM 44.1 °F 39.0 °F 36.0 °F 73% 29.93 in 10.0 mi South 9.2 mph - N/A   Mostly Cloudy
8:53 AM 46.0 °F 43.1 °F 36.0 °F 68% 29.96 in 10.0 mi South 5.8 mph - N/A   Overcast
9:53 AM 46.9 °F - 39.0 °F 74% 29.98 in 10.0 mi South 5.8 mph - 0.01 in Rain Light Rain
10:53 AM 51.1 °F - 37.0 °F 59% 29.97 in 10.0 mi SSW 11.5 mph - 0.00 in   Scattered Clouds
11:53 AM 51.1 °F - 37.0 °F 59% 29.97 in 10.0 mi SW 11.5 mph - N/A   Overcast
12:53 PM 54.0 °F - 36.0 °F 51% 29.95 in 10.0 mi SW 16.1 mph 26.5 mph N/A   Overcast
1:53 PM 54.0 °F - 35.1 °F 49% 29.93 in 10.0 mi SSW 18.4 mph 24.2 mph N/A   Mostly Cloudy
2:53 PM 55.9 °F - 35.1 °F 45% 29.91 in 10.0 mi SSW 13.8 mph - N/A   Overcast
3:53 PM 53.1 °F - 35.1 °F 50% 29.93 in 10.0 mi South 13.8 mph - N/A   Overcast
4:53 PM 53.1 °F - 32.0 °F 45% 29.92 in 10.0 mi South 18.4 mph 27.6 mph N/A   Overcast
5:53 PM 53.1 °F - 30.9 °F 43% 29.93 in 10.0 mi South 15.0 mph - N/A   Overcast
6:53 PM 53.1 °F - 30.0 °F 41% 29.94 in 10.0 mi South 13.8 mph - N/A   Overcast
7:53 PM 52.0 °F - 30.0 °F 43% 29.94 in 10.0 mi South 18.4 mph - N/A   Clear
8:53 PM 50.0 °F - 30.9 °F 48% 29.95 in 10.0 mi SSW 18.4 mph - N/A   Clear
9:53 PM 50.0 °F - 30.9 °F 48% 29.96 in 10.0 mi South 16.1 mph - N/A   Clear
10:53 PM 48.9 °F - 30.9 °F 50% 29.95 in 10.0 mi South 10.4 mph - N/A   Scattered Clouds
11:53 PM 50.0 °F - 30.9 °F 48% 29.96 in 10.0 mi South 13.8 mph - N/A   Partly Cloudy